China Lake, CA

6:49 AM PDT on May 28, 2017 (GMT -0700)
China Lake NAWS

Weather History for KNID - October, 2011

Change the Weather History Date:

Friday, October 21, 2011

  Actual Average Record
Temperature  
Mean Temperature 67 °F -  
Max Temperature 87 °F 75 °F 93 °F (2003)
Min Temperature 48 °F 49 °F 39 °F (2004)
Cooling Degree Days 2    
Growing Degree Days 17 (Base 50)    
Moisture  
Dew Point 27 °F    
Average Humidity 25    
Maximum Humidity 48    
Minimum Humidity 11    
Precipitation  
Precipitation 0.00 in - - ()
Sea Level Pressure  
Sea Level Pressure 30.04 in    
Wind  
Wind Speed 3 mph (SSW)    
Max Wind Speed 10 mph    
Max Gust Speed -    
Visibility 10 miles    
Events      
Averages and records for this station are not official NWS values.
T = Trace of Precipitation, MM = Missing Value Source: NWS Daily Summary

Daily Weather History Graph

Daily Weather History Graph

Search for Another Location

Airport or City:

Trip Planner

Search our weather history database for the weather conditions in past years. The results will help you decide how hot, cold, wet, or windy it might be!

Date:

Astronomy

Oct. 21, 2011 Rise Set
Actual Time 7:02 AM PDT 6:07 PM PDT
Civil Twilight 6:36 AM PDT 6:33 PM PDT
Nautical Twilight 6:06 AM PDT 7:03 PM PDT
Astronomical Twilight 5:37 AM PDT 7:33 PM PDT
Moon 1:09 AM PDT (10/21) 2:44 PM PDT (10/21)
Length of Visible Light 11h 57m
Length of Day
11h 05m
Waning Crescent, 32% of the Moon is Illuminated
Oct 21
Waning Crescent
Oct 26
New
Nov 2
First Quarter
Nov 10
Full
Nov 18
Last Quarter

Hourly Weather History & Observations

Time (PDT) Temp. Dew Point Humidity Pressure Visibility Wind Dir Wind Speed Gust Speed Precip Events Conditions
12:56 AM 55.9 °F 27.0 °F 33% 29.98 in 10.0 mi SSW 5.8 mph - N/A   Clear
1:56 AM 55.9 °F 30.0 °F 37% 29.99 in 10.0 mi SSW 4.6 mph - N/A   Clear
2:56 AM 55.0 °F 28.9 °F 37% 29.99 in 10.0 mi WSW 4.6 mph - N/A   Clear
3:21 AM - - N/A% - - North - - N/A   Unknown
3:56 AM 53.1 °F 28.0 °F 38% 29.99 in 10.0 mi Calm Calm - N/A   Clear
4:00 AM - - N/A% - - North - - N/A   Unknown
4:56 AM 52.0 °F 28.0 °F 40% 30.00 in 10.0 mi Calm Calm - N/A   Clear
5:56 AM 48.9 °F 30.0 °F 48% 30.02 in 10.0 mi South 5.8 mph - N/A   Clear
6:56 AM 50.0 °F 28.9 °F 44% 30.05 in 10.0 mi Calm Calm - N/A   Clear
7:56 AM 52.0 °F 26.1 °F 37% 30.08 in 10.0 mi Calm Calm - N/A   Clear
8:56 AM 61.0 °F 28.0 °F 29% 30.09 in 10.0 mi Calm Calm - N/A   Clear
9:56 AM 71.1 °F 28.9 °F 21% 30.09 in 10.0 mi Calm Calm - N/A   Clear
10:56 AM 75.9 °F 30.0 °F 19% 30.09 in 10.0 mi Calm Calm - N/A   Clear
11:56 AM 81.0 °F 30.0 °F 16% 30.08 in 10.0 mi Calm Calm - N/A   Clear
12:56 PM 84.9 °F 28.9 °F 13% 30.06 in 10.0 mi ENE 5.8 mph - N/A   Clear
1:56 PM 86.0 °F 28.0 °F 12% 30.04 in 10.0 mi Calm Calm - N/A   Clear
2:56 PM 86.0 °F 26.1 °F 11% 30.02 in 10.0 mi Variable 5.8 mph - N/A   Clear
3:56 PM 86.0 °F 25.0 °F 11% 30.02 in 10.0 mi SSW 5.8 mph - N/A   Clear
4:56 PM 86.0 °F 25.0 °F 11% 30.02 in 10.0 mi Calm Calm - N/A   Clear
5:56 PM 82.9 °F 25.0 °F 12% 30.01 in 10.0 mi Calm Calm - N/A   Clear
6:56 PM 73.9 °F 23.0 °F 15% 30.05 in 10.0 mi West 3.5 mph - N/A   Clear
7:56 PM 70.0 °F 23.0 °F 17% 30.07 in 10.0 mi Calm Calm - N/A   Clear
8:56 PM 64.9 °F 23.0 °F 20% 30.07 in 10.0 mi South 3.5 mph - N/A   Clear
9:56 PM 66.0 °F 23.0 °F 20% 30.07 in 10.0 mi SW 10.4 mph - N/A   Clear
10:56 PM 62.1 °F 24.1 °F 23% 30.08 in 10.0 mi SSW 8.1 mph - N/A   Clear
11:56 PM 57.9 °F 23.0 °F 26% 30.08 in 10.0 mi SSW 8.1 mph - N/A   Clear